Council Bluffs, IA

3:41 AM CST on February 10, 2016 (GMT -0600)
Council Bluffs Municipal

Weather History for KCBF - September, 2012

Change the Weather History Date:

Friday, September 14, 2012

  Actual Average Record
Temperature  
Mean Temperature 62 °F -  
Max Temperature 77 °F 76 °F 89 °F (2004)
Min Temperature 48 °F 54 °F 42 °F (2007)
Degree Days  
Heating Degree Days 2    
Growing Degree Days 12 (Base 50)    
Moisture  
Dew Point 45 °F    
Average Humidity 60    
Maximum Humidity 94    
Minimum Humidity 24    
Precipitation  
Precipitation 0.00 in - - ()
Sea Level Pressure  
Sea Level Pressure 30.33 in    
Wind  
Wind Speed 9 mph (SSW)    
Max Wind Speed 16 mph    
Max Gust Speed 20 mph    
Visibility 10 miles    
Events      
Averages and records for this station are not official NWS values.
T = Trace of Precipitation, MM = Missing Value Source: NWS Daily Summary

Daily Weather History Graph

Daily Weather History Graph

Search for Another Location

Airport or City:

Trip Planner

Search our weather history database for the weather conditions in past years. The results will help you decide how hot, cold, wet, or windy it might be!

Date:

Astronomy

Sep. 14, 2012 Rise Set
Actual Time 7:02 AM CDT 7:33 PM CDT
Civil Twilight 6:35 AM CDT 8:00 PM CDT
Nautical Twilight 6:02 AM CDT 8:33 PM CDT
Astronomical Twilight 5:28 AM CDT 9:06 PM CDT
Moon 5:27 AM CDT (9/14) 6:30 PM CDT (9/14)
Length of Visible Light 13h 25m
Length of Day
12h 30m
Waning Crescent, 2% of the Moon is Illuminated
Sep 14
Waning Crescent
Sep 15
New
Sep 22
First Quarter
Sep 29
Full
Oct 8
Last Quarter

Hourly Weather History & Observations

Time (CDT) Temp. Dew Point Humidity Pressure Visibility Wind Dir Wind Speed Gust Speed Precip Events Conditions
12:15 AM 55.4 °F 50.0 °F 82% 30.37 in 10.0 mi SSW 9.2 mph - N/A   Partly Cloudy
12:35 AM 55.4 °F 50.0 °F 82% 30.37 in 10.0 mi SSW 8.1 mph - N/A   Clear
12:55 AM 55.4 °F 50.0 °F 82% 30.37 in 10.0 mi SSW 8.1 mph - N/A   Partly Cloudy
1:15 AM 53.6 °F 50.0 °F 88% 30.37 in 10.0 mi SW 8.1 mph - N/A   Partly Cloudy
1:35 AM 53.6 °F 50.0 °F 88% 30.38 in 10.0 mi SSW 9.2 mph - N/A   Partly Cloudy
1:55 AM 53.6 °F 50.0 °F 88% 30.38 in 10.0 mi SW 9.2 mph - N/A   Mostly Cloudy
2:15 AM 53.6 °F 48.2 °F 82% 30.37 in 10.0 mi SSW 8.1 mph - N/A   Partly Cloudy
2:35 AM 53.6 °F 48.2 °F 82% 30.37 in 10.0 mi SSW 8.1 mph - N/A   Clear
2:55 AM 51.8 °F 48.2 °F 88% 30.37 in 10.0 mi SSW 6.9 mph - N/A   Clear
3:15 AM 51.8 °F 48.2 °F 88% 30.36 in 10.0 mi SSW 6.9 mph - N/A   Clear
3:35 AM 51.8 °F 48.2 °F 88% 30.36 in 10.0 mi SSW 6.9 mph - N/A   Clear
3:55 AM 51.8 °F 48.2 °F 88% 30.36 in 10.0 mi SSW 6.9 mph - N/A   Clear
4:15 AM 51.8 °F 48.2 °F 88% 30.36 in 10.0 mi SSW 5.8 mph - N/A   Clear
4:35 AM 51.8 °F 48.2 °F 88% 30.36 in 10.0 mi SSW 6.9 mph - N/A   Clear
4:55 AM 50.0 °F 48.2 °F 94% 30.36 in 10.0 mi SSW 6.9 mph - N/A   Clear
5:15 AM 50.0 °F 48.2 °F 94% 30.36 in 10.0 mi SSW 6.9 mph - N/A   Clear
5:35 AM 50.0 °F 48.2 °F 94% 30.36 in 10.0 mi SSW 6.9 mph - N/A   Clear
5:55 AM 50.0 °F 48.2 °F 94% 30.36 in 10.0 mi SSW 5.8 mph - N/A   Clear
6:15 AM 50.0 °F 48.2 °F 94% 30.36 in 10.0 mi SW 6.9 mph - N/A   Clear
6:35 AM 50.0 °F 48.2 °F 94% 30.36 in 10.0 mi SSW 5.8 mph - N/A   Clear
6:55 AM 48.2 °F 46.4 °F 93% 30.36 in 10.0 mi SW 5.8 mph - N/A   Clear
7:15 AM 50.0 °F 48.2 °F 94% 30.36 in 10.0 mi SW 6.9 mph - N/A   Clear
7:35 AM 50.0 °F 48.2 °F 94% 30.36 in 10.0 mi SSW 6.9 mph - N/A   Clear
7:55 AM 51.8 °F 48.2 °F 88% 30.36 in 10.0 mi SSW 5.8 mph - N/A   Clear
8:15 AM 51.8 °F 48.2 °F 88% 30.37 in 10.0 mi South 6.9 mph - N/A   Clear
8:35 AM 53.6 °F 48.2 °F 82% 30.37 in 10.0 mi SSW 9.2 mph - N/A   Clear
8:55 AM 55.4 °F 48.2 °F 77% 30.37 in 10.0 mi SSW 6.9 mph - N/A   Clear
9:15 AM 57.2 °F 48.2 °F 72% 30.37 in 10.0 mi SSW 8.1 mph - N/A   Clear
9:35 AM 57.2 °F 48.2 °F 72% 30.37 in 10.0 mi SSW 9.2 mph - N/A   Clear
9:55 AM 59.0 °F 50.0 °F 72% 30.38 in 10.0 mi SSW 8.1 mph - N/A   Clear
10:15 AM 60.8 °F 48.2 °F 63% 30.38 in 10.0 mi SSW 8.1 mph - N/A   Clear
10:35 AM 60.8 °F 48.2 °F 63% 30.37 in 10.0 mi SW 9.2 mph - N/A   Clear
10:55 AM 62.6 °F 48.2 °F 59% 30.37 in 10.0 mi SW 8.1 mph - N/A   Clear
11:15 AM 66.2 °F 48.2 °F 52% 30.37 in 10.0 mi WSW 8.1 mph - N/A   Clear
11:35 AM 68.0 °F 46.4 °F 46% 30.36 in 10.0 mi SW 8.1 mph - N/A   Clear
11:55 AM 69.8 °F 44.6 °F 40% 30.36 in 10.0 mi SW 10.4 mph - N/A   Clear
12:15 PM 71.6 °F 42.8 °F 35% 30.36 in 10.0 mi SW 12.7 mph - N/A   Clear
12:35 PM 71.6 °F 39.2 °F 31% 30.35 in 10.0 mi WSW 12.7 mph - N/A   Clear
12:55 PM 73.4 °F 39.2 °F 29% 30.35 in 10.0 mi SW 12.7 mph - N/A   Clear
1:15 PM 73.4 °F 39.2 °F 29% 30.34 in 10.0 mi SW 9.2 mph - N/A   Clear
1:35 PM 75.2 °F 37.4 °F 25% 30.33 in 10.0 mi SSW 13.8 mph - N/A   Clear
1:55 PM 75.2 °F 39.2 °F 27% 30.33 in 10.0 mi SW 12.7 mph 18.4 mph N/A   Clear
2:15 PM 75.2 °F 39.2 °F 27% 30.32 in 10.0 mi SSW 13.8 mph - N/A   Clear
2:35 PM 75.2 °F 39.2 °F 27% 30.31 in 10.0 mi SW 16.1 mph - N/A   Clear
2:55 PM 77.0 °F 37.4 °F 24% 30.31 in 10.0 mi South 15.0 mph - N/A   Clear
3:15 PM 77.0 °F 39.2 °F 26% 30.30 in 10.0 mi SSW 10.4 mph 17.3 mph N/A   Clear
3:35 PM 77.0 °F 39.2 °F 26% 30.29 in 10.0 mi South 12.7 mph - N/A   Clear
3:55 PM 77.0 °F 41.0 °F 28% 30.29 in 10.0 mi SW 16.1 mph - N/A   Clear
4:15 PM 77.0 °F 39.2 °F 26% 30.29 in 10.0 mi SSW 10.4 mph 19.6 mph N/A   Clear
4:35 PM 77.0 °F 39.2 °F 26% 30.28 in 10.0 mi SW 12.7 mph 19.6 mph N/A   Clear
4:55 PM 77.0 °F 41.0 °F 28% 30.28 in 10.0 mi SSW 12.7 mph 18.4 mph N/A   Clear
5:15 PM 77.0 °F 41.0 °F 28% 30.28 in 10.0 mi SW 15.0 mph - N/A   Clear
5:35 PM 77.0 °F 41.0 °F 28% 30.28 in 10.0 mi SSW 12.7 mph - N/A   Clear
5:55 PM 75.2 °F 42.8 °F 31% 30.27 in 10.0 mi SSW 11.5 mph - N/A   Clear
6:15 PM 75.2 °F 41.0 °F 29% 30.27 in 10.0 mi SSW 11.5 mph - N/A   Clear
6:35 PM 73.4 °F 42.8 °F 33% 30.27 in 10.0 mi South 9.2 mph - N/A   Clear
6:55 PM 71.6 °F 41.0 °F 33% 30.27 in 10.0 mi South 13.8 mph - N/A   Clear
7:15 PM 69.8 °F 41.0 °F 35% 30.27 in 10.0 mi South 10.4 mph 17.3 mph N/A   Clear
7:35 PM 68.0 °F 41.0 °F 37% 30.27 in 10.0 mi South 9.2 mph - N/A   Clear
7:55 PM 64.4 °F 44.6 °F 49% 30.28 in 10.0 mi South 8.1 mph - N/A   Clear
8:15 PM 64.4 °F 42.8 °F 45% 30.28 in 10.0 mi South 9.2 mph - N/A   Clear
8:35 PM 62.6 °F 44.6 °F 52% 30.28 in 10.0 mi South 9.2 mph - N/A   Clear
8:55 PM 62.6 °F 44.6 °F 52% 30.28 in 10.0 mi South 10.4 mph - N/A   Clear
9:15 PM 60.8 °F 44.6 °F 55% 30.28 in 10.0 mi South 9.2 mph - N/A   Clear
9:35 PM 60.8 °F 44.6 °F 55% 30.28 in 10.0 mi South 9.2 mph - N/A   Clear
9:55 PM 60.8 °F 44.6 °F 55% 30.28 in 10.0 mi South 10.4 mph - N/A   Clear
10:15 PM 60.8 °F 44.6 °F 55% 30.29 in 10.0 mi South 9.2 mph - N/A   Partly Cloudy
10:35 PM 60.8 °F 44.6 °F 55% 30.29 in 10.0 mi South 8.1 mph - N/A   Partly Cloudy
10:55 PM 59.0 °F 44.6 °F 59% 30.29 in 10.0 mi South 9.2 mph - N/A   Clear
11:35 PM 59.0 °F 44.6 °F 59% 30.29 in 10.0 mi South 8.1 mph - N/A   Clear
11:55 PM 59.0 °F 44.6 °F 59% 30.29 in 10.0 mi South 6.9 mph - N/A   Partly Cloudy